Regional Weather Roundup
Issued by NWS Lake Charles, LA

Home | Current Version | Previous Version | Text Only | Print | Product List | Glossary On
Versions: 1 2 3 4 5 6 7 8 9 10 11 12 13 14 15 16 17 18 19 20 21 22 23 24 25 26 27 28 29 30 31 32 33 34 35 36 37 38 39 40 41 42 43 44 45 46 47 48 49 50
000
ASUS44 KLCH 062310
RWRLCH
RWRLCH
REGIONAL WEATHER ROUNDUP
NATIONAL WEATHER SERVICE LAKE CHARLES LA
600 PM CDT MON JUL 06 2015

Note: "fair" indicates few or no clouds below 12,000 feet with no
significant weather and/or obstructions to visibility.


ACROSS SOUTHEAST TEXAS

CITY           SKY/WX    TMP DP  RH WIND       PRES   REMARKS
BEAUMONT       MOSUNNY   87  76  69 S12       30.03F
BEAUMONT CITY    N/A     86  75  68 S12       30.03F
ORANGE         CLEAR     87  70  55 S12       30.06F
JASPER         SUNNY     92  72  52 S12G18    30.04F
$$

ACROSS CENTRAL LOUISIANA

CITY           SKY/WX    TMP DP  RH WIND       PRES   REMARKS
LEESVILLE      SUNNY     90  72  55 S14       30.02F
FULLERTON        N/A     92  71  50 VRB5      30.01F
ALEXANDRIA INT SUNNY     89  72  56 S9        30.02F
ESLER FIELD    SUNNY     92  72  51 S6        30.04F
DERIDDER         N/A     90  73  57 S10       30.06F HAZE
OAKDALE        CLEAR     89  75  63 S7        30.05F
OPELOUSAS      MOCLDY    87  76  69 SW8       30.06F
$$

ACROSS SOUTHWEST AND SOUTH CENTRAL LOUISIANA

CITY           SKY/WX    TMP DP  RH WIND       PRES   REMARKS
SULPHUR        PTCLDY    89  74  61 S12       30.06F
LAKE CHARLES   PTSUNNY   88  75  65 S9        30.05F
CHENNAULT INT  NOT AVBL
CAMERON PHI    NOT AVBL
DEQUINCY       MOCLDY    89  74  62 S10       30.04F
JENNINGS         N/A     89  74  62 S9        30.06F
LAFAYETTE      MOSUNNY   89  73  59 S13       30.07F
NEW IBERIA     NOT AVBL
ABBEVILLE        N/A     87  76  68 SE12      30.08S
PATTERSON      MOSUNNY   88  73  62 SW7       30.10F
SALT POINT       N/A     87  77  72 CALM      30.08F
$$

SELECTED SITES ACROSS THE REGION

CITY           SKY/WX    TMP DP  RH WIND       PRES   REMARKS
HOUSTON BUSH   PTSUNNY   89  72  56 S12       30.00F
HOUSTON HOBBY  PTSUNNY   88  75  65 S13G20    30.00F
GALVESTON      MOSUNNY   88  78  72 S15       30.03F HX 101
COLLEGE STAT   SUNNY     89  71  55 S21G26    29.98F
CONROE         PTSUNNY   89  68  49 S17       30.00F
HUNTSVILLE     PTSUNNY   90  71  53 S12G17    29.99F
LUFKIN         MOSUNNY   92  69  47 S10       30.00F
SHREVEPORT     MOSUNNY   91  71  51 S12       29.98F
MONROE         MOSUNNY   90  75  61 S7        30.03F HX 100
NATCHEZ MS     NOT AVBL
BATON ROUGE    MOSUNNY   90  73  57 S9        30.07F
N.O. INTL ARPT PTSUNNY   89  72  56 S10       30.09F
SLIDELL        PTSUNNY   89  78  70 SE10      30.09F HX 103
$$

MARINE REPORTS

STATION/POSITION TIME  TEMP    WIND        PRES    VSBY  WAVE
                       AIR SEA DIR/SP/G                  HT/PER
                 (UTC) (F)     (DEG/KT/KT) (MB)    (MI)  (FT/S)
BUOY 30 S HIGH I 2250   85 85  170/ 14/ 16 1016.3F         3/ 6
SEA RIM ST PARK  2300   85     180/ 11/ 14 1017.7F
PORT ARTHUR      2200      85  180/  8/ 12 1017.8F
SABINE PASS N    2200   87 85  190/ 11/ 18 1018.0F
TEXAS POINT      NOT AVBL
CALCASIEU PASS   2200   86 86  200/ 12/ 14   N/A
LK CHARLES BEACH 2200   89 85                N/A
MARSH ISLAND     2200   88     170/  8/ 10   N/A           0
FRESH WATER LOCK 2200   87 86  160/  8/ 11 1018.8F
AMERADA PASS     2200   87 86  170/  2/  5 1019.3F
$$


USA.gov is the U.S. government's official web portal to all federal, state and local government web resources and services.